          23 17  16 42.85  +49 37.7   5.269  5.611    14.9 / 229  18.7   77  .61

          24 17  16 41.69  +49 27.9   5.274  5.613    14.9 / 228  18.7   76  .70

          25 17  16 40.56  +49 18.0   5.278  5.616    15.0 / 227  18.7   75  .78

          26 17  16 39.43  +49 07.8   5.283  5.618    15.0 / 226  18.7   75  .86

          27 17  16 38.33  +48 57.5   5.288  5.620    15.0 / 226  18.7   75  .92

          28 17  16 37.24  +48 46.9   5.293  5.622    15.1 / 225  18.7   76  .96

          29 17  16 36.17  +48 36.2   5.298  5.624    15.1 / 224  18.7   78  .99

          30 17  16 35.12  +48 25.4   5.303  5.627    15.1 / 223  18.7   81 1.00

     July  1 17  16 34.09  +48 14.3   5.309  5.629    15.1 / 222  18.8   84  .98

           2 17  16 33.08  +48 03.1   5.315  5.631    15.1 / 221  18.8   88  .95

           3 17  16 32.08  +47 51.7   5.320  5.633    15.2 / 221  18.8   92  .89

           4 17  16 31.10  +47 40.2   5.326  5.636    15.2 / 220  18.8   96  .81

           5 17  16 30.15  +47 28.5   5.333  5.638    15.2 / 219  18.8  100  .72

           6 17  16 29.21  +47 16.7   5.339  5.640    15.2 / 218  18.8  104  .61

           7 17  16 28.29  +47 04.7   5.345  5.642    15.2 / 217  18.8  106  .50

           8 17  16 27.39  +46 52.6   5.352  5.645    15.2 / 217  18.8  108  .39

           9 17  16 26.51  +46 40.4   5.359  5.647    15.2 / 216  18.8  109  .28

          10 17  16 25.65  +46 28.0   5.366  5.649    15.2 / 215  18.8  108  .18

NAKANO

         **** Don't distribute anyone except personal use only ****

                (C) Copyright 2007 OAA/ComputingSection

write mail from CFAD0::NAKANO on 2007-06-13 05:11:39(JST).

 

    C/2007 JA21 (LINEAR)

T 2006 Nov. 10.85920 TT                                 Nakano

q   5.3593680            (2000.0)            P               Q

                   Peri.   93.29347     -0.02657392     -0.41290650

                   Node    65.55930     -0.44393539     -0.81110195

e   1.0            Incl.   89.82325     +0.89566467     -0.41427268

From 65 observations 2007 May 11-30.



NAKANO

         **** Don't distribute anyone except personal use only ****

                (C) Copyright 2007 OAA/ComputingSection

write mail from CFAD0::NAKANO on 2007-06-06 06:36:40(JST).

 



◎C/2007 JA21の軌道と予報位置    [From JSGA Web News No. 111]



    LINEARサーベイで,2007年5月11日にりゅう座頭部を撮影した CCDフレーム上の

次の位置に発見された19等級の小惑星状天体が報告され,この天体には 2007 JA21の

仮符号が与えられた.計算された初期軌道では,この小惑星は,ほぼ放物線上を動い

ていた(MPEC J52 (2007)).5月12日に イエ(Q.-z. Ye, Lulin)が鹿林の41-cm望

遠鏡を使用して,この小惑星を観測したところ,天体には約3"のコマと北東に7"〜10"

ほどの非常に淡い尾が見られた.5月13日にリーズ(J. G. Ries)がマクドナルドの

76-cm反射で観測したところ,小惑星は北北西に10"〜13"の尾があって拡散していた.

さらに,同日,45-cm反射でこの天体を観測したイタリーのソステロら(G. Sostero

et al.)の観測グループからも,小惑星には 10"ほどのコマがあることが報告され,

天体は,彗星であることが判明した(IAUC 8837).



   2007 UT             α     (2000)     δ             Mag.

   May  11.30048   17h 40m 15s.69   +53゚ 06' 22".3      19.9



    次の軌道は,2007年5月11日から5月18日までに行なわれた44個の観測から決定

したもの.

                                       。

   T = 2006 Nov. 26.246 TT    ω =  95.068

                               Ω =  65.521    (2000.0)

   q =   5.38796 AU           i =  89.840



  彗星は,暗いので位置予報は,省略する.



軌道と残差:



    C/2007 JA21 (LINEAR)

T 2006 Nov. 26.24613 TT                                 Nakano

q   5.3879563            (2000.0)            P               Q

                   Peri.   95.06758     -0.03913333     -0.41251020

                   Node    65.52133     -0.46892013     -0.79670885

e   1.0            Incl.   89.83990     +0.88237322     -0.44169033

From 44 observations 2007 May 11-18.

 

日本スペースガード協会            (c) Copyright JSGA 2007           中野 主一

         **** Don't distribute anyone except personal use only ****

                (C) Copyright 2007 OAA/ComputingSection

write mail from CFAD0::NAKANO on 2007-05-22 06:03:52(JST).



戻ります。